Weather History for Dubuque, IA

Change the Weather History Date:

Monday, January 28, 2013

  Actual Average Record
Temperature  
Mean Temperature 39 °F 20 °F  
Max Temperature 43 °F 27 °F 53 °F (1914)
Min Temperature 34 °F 12 °F -22 °F (1915)
Degree Days  
Heating Degree Days 26 46  
Month to date heating degree days 1245 1288  
Since 1 July heating degree days 3925 4098  
Cooling Degree Days 0 0  
Month to date cooling degree days 0 0  
Year to date cooling degree days 0 0  
Moisture  
Dew Point 37 °F    
Average Humidity 91    
Maximum Humidity 100    
Minimum Humidity 82    
Precipitation  
Precipitation 0.43 in 0.04 in 0.79 in (2006)
Month to date precipitation 0.80 1.05  
Year to date precipitation 0.80 1.05  
Snow  
Snow 0.00 in 0.40 in - ()
Month to date snowfall 1.3 9.0  
Since 1 July snowfall 20.5 23.6  
Snow Depth 0.00 in    
Sea Level Pressure  
Sea Level Pressure 29.81 in    
Wind  
Wind Speed 7 mph (SE)    
Max Wind Speed 31 mph    
Max Gust Speed 32 mph    
Visibility 4 miles    
Events Fog , Rain , Thunderstorm    
T = Trace of Precipitation, MM = Missing Value Source: NWS Daily Summary

Daily Weather History Graph

Daily Weather History Graph

Search for Another Location

Airport:

Trip Planner

Search our weather history database for the weather conditions in past years. The results will help you decide how hot, cold, wet, or windy it might be!

Date:

Astronomy

Jan. 28, 2013 Rise Set
Actual Time 7:20 AM CST 5:12 PM CST
Civil Twilight 6:50 AM CST 5:42 PM CST
Nautical Twilight 6:16 AM CST 6:15 PM CST
Astronomical Twilight 5:43 AM CST 6:49 PM CST
Moon 7:10 PM CST (1/28) 7:43 AM CST (1/28)
Length of Visible Light 10h 52m
Length of Day
9h 51m
Full, 98% of the Moon is Illuminated
Jan 28
Full
Feb 3
Last Quarter
Feb 10
New
Feb 17
First Quarter
Feb 25
Full

Hourly Weather History & Observations

Time (CST) Temp. Windchill Dew Point Humidity Pressure Visibility Wind Dir Wind Speed Gust Speed Precip Events Conditions
12:10 AM 33.8 °F 26.4 °F 33.8 °F 100% 29.77 in 0.5 mi South 9.2 mph - 0.00 in Fog Fog
12:37 AM 33.8 °F 25.3 °F 33.8 °F 100% 29.76 in 1.2 mi South 11.5 mph - 0.02 in   Overcast
12:49 AM 33.8 °F 26.4 °F 33.8 °F 100% 29.76 in 0.5 mi South 9.2 mph - 0.02 in Fog Fog
12:53 AM 34.0 °F 27.2 °F 34.0 °F 100% 29.80 in 0.5 mi South 8.1 mph - 0.02 in Fog , Rain Light Rain
1:21 AM 33.8 °F 26.4 °F 33.8 °F 100% 29.75 in 1.0 mi South 9.2 mph - 0.05 in Rain Light Rain
1:30 AM 33.8 °F 27.0 °F 33.8 °F 100% 29.75 in 0.8 mi South 8.1 mph - 0.06 in   Mist
1:53 AM 34.0 °F 27.2 °F 34.0 °F 100% 29.79 in 0.5 mi SSW 8.1 mph - 0.06 in Fog Fog
2:06 AM 35.6 °F 29.2 °F 35.6 °F 100% 29.77 in 0.2 mi SW 8.1 mph - N/A Fog Fog
2:53 AM 35.1 °F 30.1 °F 35.1 °F 100% 29.80 in 0.2 mi SW 5.8 mph - 0.01 in Fog Fog
3:53 AM 35.1 °F 30.1 °F 35.1 °F 100% 29.81 in 0.2 mi SW 5.8 mph - N/A Fog Fog
4:53 AM 35.1 °F 30.1 °F 35.1 °F 100% 29.83 in 0.2 mi SW 5.8 mph - N/A Fog Fog
5:34 AM 35.6 °F 29.9 °F 35.6 °F 100% 29.82 in 0.8 mi West 6.9 mph - N/A   Mist
5:53 AM 35.1 °F 29.3 °F 35.1 °F 100% 29.86 in 0.5 mi WNW 6.9 mph - N/A Fog Fog
6:05 AM 35.6 °F 28.6 °F 35.6 °F 100% 29.83 in 1.8 mi NW 9.2 mph - N/A   Overcast
6:11 AM 35.6 °F 27.5 °F 35.6 °F 100% 29.84 in 3.0 mi NW 11.5 mph - N/A   Overcast
6:53 AM 34.0 °F 29.8 °F 34.0 °F 100% 29.90 in 4.0 mi NW 4.6 mph - N/A   Overcast
7:11 AM 33.8 °F 29.6 °F 33.8 °F 100% 29.87 in 6.0 mi WNW 4.6 mph - N/A   Overcast
7:53 AM 34.0 °F 31.0 °F 34.0 °F 100% 29.92 in 5.0 mi NNW 3.5 mph - N/A   Overcast
8:08 AM 33.8 °F 28.6 °F 33.8 °F 100% 29.89 in 7.0 mi NW 5.8 mph - N/A   Overcast
8:19 AM 35.6 °F 31.7 °F 33.8 °F 93% 29.90 in 7.0 mi NNW 4.6 mph - N/A   Overcast
9:53 AM 37.0 °F 32.4 °F 34.0 °F 89% 29.94 in 10.0 mi North 5.8 mph - N/A   Overcast
10:12 AM 37.4 °F 33.8 °F 35.6 °F 93% 29.91 in 10.0 mi NNW 4.6 mph - N/A   Mostly Cloudy
10:53 AM 39.0 °F 35.7 °F 35.1 °F 86% 29.95 in 10.0 mi North 4.6 mph - N/A   Mostly Cloudy
11:53 AM 39.0 °F - 35.1 °F 86% 29.94 in 8.0 mi Calm Calm - N/A   Overcast
12:49 PM 39.2 °F - 35.6 °F 87% 29.88 in 7.0 mi Calm Calm - N/A   Partly Cloudy
12:53 PM 39.9 °F - 36.0 °F 86% 29.91 in 7.0 mi Calm Calm - N/A   Partly Cloudy
1:53 PM 43.0 °F 40.3 °F 37.0 °F 80% 29.90 in 10.0 mi East 4.6 mph - N/A   Partly Cloudy
2:53 PM 43.0 °F 39.5 °F 37.9 °F 82% 29.90 in 8.0 mi SE 5.8 mph - N/A   Clear
3:53 PM 42.1 °F 37.7 °F 37.0 °F 82% 29.89 in 10.0 mi East 6.9 mph - N/A   Clear
4:53 PM 39.0 °F 34.8 °F 35.1 °F 86% 29.90 in 9.0 mi East 5.8 mph - N/A   Clear
5:23 PM 37.4 °F 33.8 °F 35.6 °F 93% 29.87 in 10.0 mi East 4.6 mph - N/A   Mostly Cloudy
5:53 PM 39.0 °F 33.4 °F 36.0 °F 89% 29.89 in 10.0 mi East 8.1 mph - N/A   Overcast
6:18 PM 37.4 °F 32.8 °F 35.6 °F 93% 29.87 in 10.0 mi SSE 5.8 mph - N/A   Overcast
6:27 PM 37.4 °F 32.8 °F 35.6 °F 93% 29.87 in 9.0 mi SSE 5.8 mph - N/A   Overcast
6:53 PM 37.9 °F 32.1 °F 36.0 °F 93% 29.88 in 6.0 mi SE 8.1 mph - N/A   Overcast
7:01 PM 37.4 °F 32.8 °F 37.4 °F 100% 29.84 in 6.0 mi ESE 5.8 mph - N/A   Overcast
7:44 PM 37.4 °F 30.8 °F 37.4 °F 100% 29.83 in 3.0 mi East 9.2 mph - N/A   Overcast
7:53 PM 37.9 °F 31.5 °F 37.0 °F 97% 29.86 in 3.0 mi ESE 9.2 mph - N/A   Overcast
8:03 PM 37.4 °F 32.8 °F 37.4 °F 100% 29.83 in 2.5 mi East 5.8 mph - N/A   Overcast
8:31 PM 37.4 °F 30.3 °F 37.4 °F 100% 29.81 in 1.2 mi ESE 10.4 mph - N/A   Overcast
8:53 PM 37.9 °F 30.0 °F 37.9 °F 100% 29.82 in 0.5 mi East 12.7 mph - N/A Fog Fog
9:21 PM 37.4 °F 30.8 °F 37.4 °F 100% 29.77 in 0.2 mi ESE 9.2 mph - N/A Fog Fog
9:29 PM 37.4 °F 30.8 °F 37.4 °F 100% 29.76 in 0.2 mi East 9.2 mph - N/A Fog Fog
9:45 PM 37.4 °F 30.3 °F 37.4 °F 100% 29.74 in 0.2 mi ESE 10.4 mph - N/A Fog Fog
9:53 PM 39.0 °F 32.3 °F 39.0 °F 100% 29.75 in 0.2 mi ESE 10.4 mph - N/A Fog Fog
10:13 PM 39.2 °F 33.6 °F 39.2 °F 100% 29.72 in 0.2 mi ESE 8.1 mph - N/A Fog , Thunderstorm Fog
10:33 PM 39.2 °F 29.8 °F 39.2 °F 100% 29.69 in 0.2 mi SE 18.4 mph 24.2 mph 0.05 in Fog , Rain , Thunderstorm Heavy Thunderstorms and Rain
10:39 PM 39.2 °F 29.3 °F 39.2 °F 100% 29.69 in 1.0 mi SE 20.7 mph 25.3 mph 0.29 in Rain , Thunderstorm Light Thunderstorms and Rain
10:42 PM 39.2 °F 29.3 °F 39.2 °F 100% 29.69 in 3.0 mi SE 20.7 mph - 0.29 in Rain , Thunderstorm Light Thunderstorms and Rain
10:51 PM 41.0 °F 31.4 °F 39.2 °F 93% 29.68 in 5.0 mi SE 21.9 mph - 0.29 in Thunderstorm Overcast
10:53 PM 41.0 °F 31.6 °F 41.0 °F 100% 29.70 in 3.0 mi SE 20.7 mph - 0.29 in Rain , Thunderstorm Light Rain
11:12 PM 39.2 °F 30.2 °F 39.2 °F 100% 29.68 in 5.0 mi SE 17.3 mph - 0.05 in   Overcast
11:22 PM 39.2 °F 30.2 °F 39.2 °F 100% 29.68 in 1.5 mi SE 17.3 mph - 0.05 in   Overcast
11:33 PM 41.0 °F 33.9 °F 41.0 °F 100% 29.68 in 0.5 mi SE 12.7 mph - 0.05 in Fog Fog
11:41 PM 42.8 °F 36.6 °F 42.8 °F 100% 29.67 in 0.2 mi SE 11.5 mph - 0.05 in Fog Fog
11:53 PM 42.1 °F 34.9 °F 42.1 °F 100% 29.68 in 0.2 mi SE 13.8 mph - 0.05 in Fog Fog